Regional Weather Roundup
Issued by NWS

Home | Current Version | Previous Version | Text Only | Print | Product List | Glossary Off
Versions: 1 2 3 4 5 6 7 8 9 10 11 12 13 14 15 16 17 18 19 20 21 22 23 24 25 26 27 28 29 30 31 32 33 34 35 36 37 38 39 40 41 42 43 44 45 46 47 48 49 50

345
ASUS43 KLMK 220902
RWRKY
KENTUCKY REGIONAL WEATHER ROUNDUP
NATIONAL WEATHER SERVICE LOUISVILLE KY
400 AM EST WED FEB 22 2017

NOTE "FAIR" INDICATES FEW OR NO CLOUDS BELOW 12,000 FEET
WITH NO SIGNIFICANT WEATHER AND/OR OBSTRUCTIONS TO VISIBILITY.

KYZ001>023-026-027-061>063-070>075-221000-
WESTERN AND SOUTH CENTRAL KENTUCKY

CITY           SKY/WX    TMP DP  RH WIND       PRES   REMARKS
PADUCAH        CLOUDY    56  54  93 S5        29.87S FOG
HENDERSON      CLOUDY    55  52  88 CALM      29.88R
OWENSBORO      CLOUDY    57  55  93 S5        29.90S
HOPKINSVILLE   MOCLDY    57  57 100 N8G18     29.89R
BOWLING GREEN  CLOUDY    56  54  93 CALM      29.89F
GLASGOW        NOT AVBL
$$

KYZ024-025-028>034-038-045-046-053-221000-
NORTH CENTRAL KENTUCKY

CITY           SKY/WX    TMP DP  RH WIND       PRES   REMARKS
LOUISVILLE/SDF CLOUDY    59  54  83 SE6       29.90F
LOUISVILLE/LOU CLOUDY    59  54  83 SE3       29.91F
FORT KNOX      CLOUDY    55  55 100 CALM      29.89S
$$

KYZ035>037-039>044-047>052-055>060-089>105-221000-
NORTHEAST KENTUCKY

CITY           SKY/WX    TMP DP  RH WIND       PRES   REMARKS
LEXINGTON      CLOUDY    56  54  93 CALM      29.93F
COVINGTON      CLOUDY    56  56 100 S8        29.91F FOG
FRANKFORT      CLOUDY    57  54  89 CALM      29.91S
$$

KYZ054-064>069-076>088-106>120-221000-
SOUTHEAST KENTUCKY

CITY           SKY/WX    TMP DP  RH WIND       PRES   REMARKS
JACKSON        LGT RAIN  54  52  93 CALM      29.96F
LONDON         LGT RAIN  54  52  93 CALM      29.95F FOG
SOMERSET       RAIN      54  54 100 CALM      29.96S
MIDDLESBORO    DRIZZLE   54  53  99 CALM      29.96S
MONTICELLO     LGT RAIN  55  54  96 VRB3      29.96S FOG
$$





USA.gov is the U.S. government's official web portal to all federal, state and local government web resources and services.